www.pogodaiklimat.ru

Погода и климат >> Архив погоды >> Россия >> Свердловская область >> Екатеринбург


АРХИВ ПОГОДЫ в Екатеринбурге

Время (UTC), дата Ветер
(напр.,м/с)
 
Видим.   Явления Облачность Т
(С)
Тd
(С)
f
(%)
Тe
(С)
Тes
(С)
Комфортность P
(гПа)
Po
(гПа)
Тmin
(С)
Tmax
(С)
R
(мм)
R24
(мм)
S
(см)
03 5.12 Ю 2 10 км н/о -2.1 -5.0 80 -6 -6 тепло 1022.5 987.1 -4.1 5
06 5.12 Ю 3 20 км {ливн. осадки} 10/8 600 м
[Sc Ac As]
-0.7 -4.1 78 -5 -5 тепло 1021.7 986.5
09 5.12 Ю 3 50 км 9/9 600 м
[Sc]
+0.8 -7.3 55 -3 -3 тепло 1020.5 985.6
12 5.12 Ю 3 10 км 10/4 600 м
[Sc Cc]
+0.4 -11.6 40 -3 -3 тепло 1020.1 985.1
15 5.12 ЮЗ 3 10 км 8/3 600 м
[Sc Cs]
+0.8 -12.6 36 -3 -3 тепло 1019.7 984.7 +1.0 0.0
18 5.12 ЮЗ 3 10 км 8/0
[Cs]
+0.4 -12.1 39 -3 -3 тепло 1020.0 985.0
21 5.12 Ю 2 10 км 8/4 600 м
[Sc Cs]
-0.3 -12.0 41 -3 -3 тепло 1020.1 985.0
00 6.12 ЮЗ 3 10 км 9/6 600 м
[Sc Cs]
-0.4 -13.4 37 -4 -4 тепло 1020.4 985.3
03 6.12 ЮЗ 2 10 км 9/8 600 м
[Sc Cs]
-0.9 -12.8 40 -4 -4 тепло 1020.2 985.0 -0.9 5
06 6.12 ЮВ 2 50 км 10/0
[Ac As Cs]
-1.8 -9.9 54 -5 -5 тепло 1020.9 985.6 -1.8
09 6.12 ЮВ 2 50 км 10/0
[Ac As Cs]
-0.5 -12.5 40 -3 -3 тепло 1020.6 985.5
12 6.12 ЮВ 2 10 км 10/0
[Ac und]
-2.6 -11.1 52 -6 -6 тепло 1021.6 986.1
15 6.12 ЮВ 2 10 км 10/0
[Ac und]
-2.6 -11.1 52 -6 -6 тепло 1021.6 986.1
18 6.12 ЮВ 3 10 км 10/0
[Ac und]
-4.6 -10.9 61 -10 -10 по сезону 1022.3 986.6
21 6.12 ЮВ 3 10 км 10/0
[Ac und]
-5.1 -10.3 67 -10 -10 по сезону 1022.3 986.5
00 7.12 Ю 4 10 км 10/0
[Ac und]
-4.1 -10.0 63 -10 -10 по сезону 1020.9 985.3
03 7.12 ЮВ 5
{10}
10 км {снег} 10/0
[Cs]
-4.8 -10.1 66 -12 -12 по сезону 1019.8 984.2 -5.3 0.0 5
06 7.12 ЮВ 5
{12}
20 км {снег} 10/0
[Ac und]
-5.8 -11.0 67 -13 -13 по сезону 1019.7 983.9 -5.8
09 7.12 ЮВ 5-10
{10}
20 км 10/4 600 м
[Sc Ac As]
-6.3 -10.0 75 -14 -13 по сезону 1018.6 982.8
12 7.12 ЮВ 5
{10}
10 км {ливн. осадки} 10/6 600 м
[Cb calv Ac As]
-6.1 -9.5 77 -13 -13 по сезону 1018.0 982.2
15 7.12 ЮВ 5
{11}
4000 м слабый ливневой снег {метель} 10/10 600 м
[Cb calv]
-6.5 -8.9 83 -14 -14 по сезону 1016.2 980.4 -4.8 0.5
18 7.12 ЮВ 3
{10}
10 км слабый ливневой снег {метель} 10/10 600 м
[Cb cap]
-6.3 -8.0 88 -12 -12 по сезону 1015.9 980.2
21 7.12 ЮВ 3 10 км {ливн. осадки, метель} 10/10 600 м
[Cb calv]
-5.5 -7.7 84 -11 -11 по сезону 1015.4 979.8
00 8.12 ЮВ 2 10 км {ливн. осадки, метель} 10/10 600 м
[Sc]
-5.3 -7.1 87 -10 -10 по сезону 1014.7 979.2
03 8.12 ЮВ 3 4000 м слабый снег 10/0
[Ac As]
-5.4 -6.8 90 -11 -11 по сезону 1014.4 978.8 -6.7 2 7
06 8.12 ЮВ 4 4000 м слабый снег 10/0
[As op]
-5.6 -7.2 88 -12 -12 по сезону 1014.1 978.5
09 8.12 ЮВ 2 4000 м слабый снег 10/10 300 м
[Frnb Ns]
-5.2 -7.0 87 -10 -10 по сезону 1013.7 978.2
12 8.12 ЮВ 3 н/о н/о -5.5 -7.2 88 -11 -11 по сезону 1013.6 978.0
15 8.12 В 2 4000 м слабый снег 10/0
[As op]
-6.1 -7.7 88 -10 -10 по сезону 1013.4 977.8 -5.1 4
18 8.12 В 1 2000 м снег 10/0
[As op]
-6.6 -8.5 86 -9 -9 по сезону 1012.8 977.2
21 8.12 штиль 0 2000 м снег 10/0 300 м
[As op]
-6.7 -8.5 87 -8 -8 тепло 1011.9 976.2
00 9.12 С 1 2000 м снег 10/0
[As op]
-6.8 -8.7 86 -9 -9 тепло 1011.2 975.6
03 9.12 С 3 10 км {снег} 3/3 600 м
[Sc]
-7.1 -9.2 85 -13 -13 по сезону 1010.9 975.3 -7.2 4 13
06 9.12 С 2 20 км {снег} 10/10 600 м
[Sc]
-6.9 -9.1 84 -11 -11 по сезону 1011.0 975.4
09 9.12 С 2 4000 м слабый ливневой снег 10/10 600 м
[Cb cap]
-6.7 -9.2 82 -11 -11 по сезону 1009.5 974.0
12 9.12 С 3 1000 м сильный снег {ливн. осадки} 10/0
[As op]
-6.8 -8.5 88 -13 -13 по сезону 1009.3 973.8
15 9.12 С 2 1000 м сильный снег 10/0
[As op]
-6.9 -8.5 88 -11 -11 по сезону 1010.0 974.4 -6.5 5
18 9.12 СЗ 4
{10}
10 км слабый снег {метель} 9/0
[Ac As]
-7.2 -9.5 84 -14 -14 по сезону 1009.7 974.1
21 9.12 С 3
{10}
4000 м слабый снег {метель} 10/0
[As op]
-7.6 -10.2 82 -13 -13 по сезону 1010.3 974.6
00 10.12 СЗ 4
{10}
4000 м слабый снег {метель} 10/0
[As op]
-7.9 -10.7 80 -15 -15 по сезону 1011.8 976.1
03 10.12 СЗ 4
{10}
4000 м слабый ливневой снег 9/8 600 м
[Cb cap Cs]
-8.0 -11.5 76 -15 -15 по сезону 1014.1 978.2 -8.1 2 16
06 10.12 СЗ 3 50 км слабый ливневой снег 10/8 600 м
[Cb cap Cs]
-7.9 -10.6 81 -14 -14 по сезону 1016.2 980.2 -8.2
09 10.12 С 2 4000 м слабый ливневой снег 10/8 600 м
[Cb cap Cs]
-7.6 -11.0 77 -12 -12 по сезону 1017.9 981.9
12 10.12 СЗ 3 4000 м слабый ливневой снег 10/8 600 м
[Cb cap Cs]
-8.3 -10.6 83 -14 -14 по сезону 1020.1 984.0
15 10.12 СЗ 2 4000 м слабый ливневой снег 10/6 600 м
[Cb cap Cs]
-9.8 -12.5 81 -14 -14 по сезону 1022.6 986.2 -7.4 1
18 10.12 З 4 10 км {ливн. осадки} 10/5 600 м
[Sc Cs]
-12.0 -14.4 82 -19 -19 прохладно 1024.3 987.5
21 10.12 СЗ 4 10 км {ливн. осадки} 10/0
[Cs]
-14.2 -16.8 81 -22 -22 холодно 1025.9 988.7
00 11.12 З 2 10 км {ливн. осадки} 10/0
[Cs]
-14.6 -17.1 81 -20 -20 прохладно 1027.6 990.3
03 11.12 З 4 н/о н/о -15.2 -17.6 82 -23 -23 холодно 1029.0 991.6 -15.3
06 11.12 З 2 4000 м слабый ливневой снег 10/8 600 м
[Cb calv Ci fib]
-14.6 -17.0 82 -20 -20 прохладно 1030.4 993.0 -15.6
09 11.12 СЗ 2 10 км {ливн. осадки} 10/0
[Cs]
-12.1 -15.2 78 -17 -16 по сезону 1030.6 993.5
12 11.12 С 1 10 км {ливн. осадки} 10/0
[Cs]
-12.1 -14.8 80 -14 -14 по сезону 1032.2 995.1
15 11.12 З 2 10 км 10/0
[Cc]
-14.5 -16.5 85 -19 -19 прохладно 1033.6 996.2 -11.7 0.3
18 11.12 СЗ 1 10 км 10/0
[Cc]
-14.8 -16.9 84 -17 -17 по сезону 1034.1 996.6
21 11.12 штиль 0 10 км слабый снег 10/0
[Ac As Cs]
-16.3 -18.4 84 -16 -16 по сезону 1035.2 997.4
00 12.12 ЮВ 1 10 км {снег} 10/0
[Cs]
-17.4 -19.7 82 -20 -20 прохладно 1035.7 997.7

 

Местоположение метеостанции Екатеринбург (Свердловская область, Россия): широта 56.83 долгота 60.63 высота над уровнем моря 281 м.

В архиве по умолчанию представлена погода в Екатеринбурге за последнюю неделю. Архивные данные за месяц целиком и за предыдущие месяцы, начиная с января 2011 года, Вы можете получить, выбрав интересующий диапазон дат из раскрывающегося списка и нажав кнопку "Ввод!".

Внимание! Время в таблицах - всемирное. Для получения местного времени необходимо прибавить поправку, которая в Екатеринбурге равна 5 ч.

Смотрите также архив погоды в соседних городах и на ближайших метеорологических станциях:

Погода в Верхнем Дуброво (Свердловская область, Россия) (29 км)
Погода в Сысерти (Свердловская область, Россия) (38 км)
Погода в Ревде (Свердловская область, Россия) (40 км)
Погода в Невьянске (Свердловская область, Россия) (78 км)
Погода в Верхнем Уфалее (Челябинская область, Россия) (86 км)
Погода в Каменск-Уральском (Свердловская область, Россия) (88 км)
Погода в Бисерти (Свердловская область, Россия) (95 км)
Погода в Артемовском (Свердловская область, Россия) (98 км)
Погода в Михайловске (Свердловская область, Россия) (105 км)
Погода в Нязепетровске (Челябинская область, Россия) (108 км)

Пояснения к столбцам:

Ветер - указаны скорость ветра в м/с - средняя за 10 мин, порывы в срок и между сроками (в фигурных скобках) и направление, откуда дует ветер: С - северный, СВ - северо-восточный, В - восточный, ЮВ - юго-восточный, Ю - южный, ЮЗ - юго-западный, З - западный, СЗ - северо-западный.
Видимость - горизонтальная дальность видимости в метрах или километрах. При видимости от 1 до 10 км при отсутствии осадков обычно наблюдается дымка, при ухудшении видимости до 1 км и менее - туман. В сухую погоду видимость может ухудшаться дымом, пылью или мглою.
Явления - указаны атмосферные явления, наблюдавшиеся в срок или в последний час перед сроком; фигурными скобками обозначены явления, наблюдавшиеся между сроками (за 1-3 часа до срока); квадратными скобками обозначены град или гололедные отложения с указанием их диаметра в мм.
Облачность - указаны через наклонную черту общая и нижняя облачность в баллах и высота нижней границы облаков в метрах; квадратными скобками обозначены формы облаков: Ci - перистые, Cs - перисто-слоистые, Cc - перисто-кучевые, Ac - высококучевые, As - высокослоистые, Sc - слоисто-кучевые, Ns - слоисто-дождевые, Cu - кучевые, Cb - кучево-дождевые. Подробнее классификацию облаков см. в Атласе облаков (PDF).
T - Температура воздуха - температура, измеренная на высоте 2 м над землей.
Td - Температура точки росы - температура, при понижении до которой содержащийся в воздухе водяной пар достигнет насыщения.
f - Относительная влажность воздуха - влажноcть воздуха, измеренная на высоте 2 м над землей.
Te - Эффективная температура - температура, которую ощущает одетый по сезону человек в тени. Характеристика душности погоды. При расчете учитывается влияние влажности воздуха и скорости ветра на теплоощущения человека.
Tes - Эффективная температура на солнце - температура, которую ощущает человек, с поправкой на солнечный нагрев. Характеристика знойности погоды. Зависит от высоты солнца над горизонтом, облачности и скорости ветра. Ночью, в пасмурную погоду, а также при ветре 12 м/с и более поправка равна нулю.
P - Атмосферное давление - приведенное к уровню моря атмосферное давление.
Po - Атмосферное давление - измеренное на уровне метеостанции атмосферное давление.
Tmin - Минимальная температура - минимум температуры воздуха на высоте 2 м над землей.
Tmax - Максимальная температура - максимум температуры воздуха на высоте 2 м над землей.
R - Количество осадков - Количество выпавших осадков за период времени, мм. При наведении курсора мыши на число - период времени, за который выпало указанное количество осадков.
R24 - Количество осадков - Количество выпавших осадков за 24 часа, мм.
S - Снежный покров - Высота снежного покрова, см. При наведении курсора мыши на число - состояние снежного покрова и степень покрытия местности в баллах.